TCA7378 BIKF-BGBW

Flight info

Callsign TCA7378
Flight time N/A
Altitude 43000
Route RALOV3A RALOV DCT 6330N DCT 6240N DCT UMSUK DCT NA
Aircraft C25B/M-SDE2E3FGHRWXY/LB1

Departure

Time N/A
Airport Keflavik International Airport (BIKF)

Arrival

Time 2026-04-11 13:12
Airport Narsarsuaq Airport (BGBW)
Time Latitude Longitude Altitude Speed Heading
2026-04-11 12:28 62.23123 -38.25964 41992 ft 397 kts 256°
2026-04-11 12:29 62.22404 -38.31685 41992 ft 397 kts 256°
2026-04-11 12:29 62.20963 -38.43081 41992 ft 397 kts 256°
2026-04-11 12:30 62.19508 -38.54485 41991 ft 397 kts 256°
2026-04-11 12:30 62.18044 -38.65884 41991 ft 397 kts 255°
2026-04-11 12:31 62.16579 -38.77197 41992 ft 397 kts 255°
2026-04-11 12:31 62.15097 -38.88571 41992 ft 397 kts 255°
2026-04-11 12:32 62.13607 -38.99916 41992 ft 397 kts 255°
2026-04-11 12:32 62.12107 -39.11262 41993 ft 397 kts 255°
2026-04-11 12:33 62.10607 -39.22523 41989 ft 397 kts 255°
2026-04-11 12:33 62.09089 -39.33845 41990 ft 396 kts 255°
2026-04-11 12:34 62.07562 -39.45149 41991 ft 396 kts 255°
2026-04-11 12:34 62.06028 -39.56434 41992 ft 396 kts 255°
2026-04-11 12:35 62.04496 -39.67624 41991 ft 396 kts 255°
2026-04-11 12:35 62.02946 -39.78856 41991 ft 395 kts 255°
2026-04-11 12:36 62.01389 -39.90078 41992 ft 395 kts 255°
2026-04-11 12:36 61.99832 -40.01284 41991 ft 394 kts 256°
2026-04-11 12:37 61.98394 -40.12451 41991 ft 394 kts 256°
2026-04-11 12:37 61.96921 -40.23671 41991 ft 394 kts 256°
2026-04-11 12:38 61.95451 -40.34890 41991 ft 394 kts 256°
2026-04-11 12:38 61.93965 -40.46094 41992 ft 394 kts 256°
2026-04-11 12:39 61.92484 -40.57199 41990 ft 394 kts 255°
2026-04-11 12:39 61.90983 -40.68369 41991 ft 393 kts 255°
2026-04-11 12:40 61.89475 -40.79514 41992 ft 393 kts 255°
2026-04-11 12:40 61.87960 -40.90633 41991 ft 392 kts 255°
2026-04-11 12:41 61.86440 -41.01727 41990 ft 392 kts 255°
2026-04-11 12:41 61.84921 -41.12726 41990 ft 391 kts 255°
2026-04-11 12:42 61.83386 -41.23775 41990 ft 391 kts 255°
2026-04-11 12:42 61.81845 -41.34789 41991 ft 390 kts 255°
2026-04-11 12:43 61.79526 -41.51215 41990 ft 390 kts 255°
2026-04-11 12:43 61.77965 -41.62190 41989 ft 390 kts 254°
2026-04-11 12:44 61.77181 -41.67685 41741 ft 391 kts 254°
2026-04-11 12:44 61.76393 -41.73153 41240 ft 388 kts 255°
2026-04-11 12:44 61.75614 -41.78587 40723 ft 385 kts 254°
2026-04-11 12:44 61.74833 -41.83982 40213 ft 383 kts 254°
2026-04-11 12:45 61.74068 -41.89268 39713 ft 380 kts 254°
2026-04-11 12:45 61.73296 -41.94584 39209 ft 378 kts 254°
2026-04-11 12:45 61.72525 -41.99860 38709 ft 375 kts 254°
2026-04-11 12:45 61.71761 -42.05099 38212 ft 373 kts 254°
2026-04-11 12:46 61.70996 -42.10296 37727 ft 370 kts 254°
2026-04-11 12:46 61.70239 -42.15457 37230 ft 367 kts 254°
2026-04-11 12:46 61.69483 -42.20578 36744 ft 365 kts 254°
2026-04-11 12:46 61.68730 -42.25649 36258 ft 362 kts 254°
2026-04-11 12:47 61.67992 -42.30633 35780 ft 360 kts 254°
2026-04-11 12:47 61.67246 -42.35654 35304 ft 358 kts 254°
2026-04-11 12:47 61.66500 -42.40643 34816 ft 356 kts 254°
2026-04-11 12:47 61.65755 -42.45604 34353 ft 355 kts 254°
2026-04-11 12:48 61.65015 -42.50543 33885 ft 353 kts 254°
2026-04-11 12:48 61.64274 -42.55453 33417 ft 351 kts 254°
2026-04-11 12:48 61.63539 -42.60335 32951 ft 349 kts 254°
2026-04-11 12:48 61.62802 -42.65185 32492 ft 347 kts 254°
2026-04-11 12:49 61.62069 -42.70009 32028 ft 346 kts 254°
2026-04-11 12:49 61.61347 -42.74747 31573 ft 344 kts 254°
2026-04-11 12:49 61.60620 -42.79525 31120 ft 342 kts 254°
2026-04-11 12:49 61.59891 -42.84273 30666 ft 340 kts 254°
2026-04-11 12:50 61.59164 -42.88995 30216 ft 339 kts 253°
2026-04-11 12:50 61.58441 -42.93700 29765 ft 338 kts 253°
2026-04-11 12:50 61.57718 -42.98376 29318 ft 336 kts 253°
2026-04-11 12:50 61.56997 -43.03032 28873 ft 335 kts 253°
2026-04-11 12:51 61.56279 -43.07658 28432 ft 333 kts 253°
2026-04-11 12:51 61.55562 -43.12273 27987 ft 332 kts 253°
2026-04-11 12:51 61.54852 -43.16808 27554 ft 331 kts 253°
2026-04-11 12:51 61.54136 -43.21392 27107 ft 330 kts 253°
2026-04-11 12:52 61.53420 -43.25958 26670 ft 329 kts 253°
2026-04-11 12:52 61.52704 -43.30507 26240 ft 328 kts 253°
2026-04-11 12:52 61.51989 -43.35040 25812 ft 327 kts 253°
2026-04-11 12:52 61.51276 -43.39560 25370 ft 326 kts 253°
2026-04-11 12:53 61.50562 -43.44059 24939 ft 325 kts 253°
2026-04-11 12:53 61.49859 -43.48485 24519 ft 324 kts 252°
2026-04-11 12:53 61.49146 -43.52944 24088 ft 323 kts 253°
2026-04-11 12:53 61.48434 -43.57417 23655 ft 323 kts 253°
2026-04-11 12:54 61.47725 -43.61861 23225 ft 322 kts 253°
2026-04-11 12:54 61.47008 -43.66299 22798 ft 321 kts 252°
2026-04-11 12:54 61.46296 -43.70733 22370 ft 320 kts 252°
2026-04-11 12:54 61.45590 -43.75130 21947 ft 319 kts 252°
2026-04-11 12:55 61.44876 -43.79514 21523 ft 318 kts 252°
2026-04-11 12:55 61.44179 -43.83823 21107 ft 317 kts 252°
2026-04-11 12:55 61.43478 -43.88175 20688 ft 315 kts 252°
2026-04-11 12:55 61.42768 -43.92504 20270 ft 314 kts 252°
2026-04-11 12:56 61.42063 -43.96815 19852 ft 314 kts 251°
2026-04-11 12:56 61.41360 -44.01121 19436 ft 313 kts 251°
2026-04-11 12:56 61.40658 -44.05418 19020 ft 312 kts 251°
2026-04-11 12:56 61.39951 -44.09693 18607 ft 311 kts 251°
2026-04-11 12:57 61.39249 -44.13945 18194 ft 310 kts 251°
2026-04-11 12:57 61.38556 -44.18200 17783 ft 309 kts 251°
2026-04-11 12:57 61.37855 -44.22372 17377 ft 308 kts 251°
2026-04-11 12:57 61.37159 -44.26597 16965 ft 307 kts 251°
2026-04-11 12:58 61.36454 -44.30796 16560 ft 306 kts 251°
2026-04-11 12:58 61.35763 -44.34986 16153 ft 305 kts 251°
2026-04-11 12:58 61.35065 -44.39150 15748 ft 304 kts 250°
2026-04-11 12:58 61.34368 -44.43300 15348 ft 303 kts 250°
2026-04-11 12:59 61.33678 -44.47438 14944 ft 302 kts 250°
2026-04-11 12:59 61.32982 -44.51540 14544 ft 299 kts 250°
2026-04-11 12:59 61.32310 -44.55536 14176 ft 294 kts 250°
2026-04-11 12:59 61.31636 -44.59530 13792 ft 291 kts 250°
2026-04-11 13:00 61.30967 -44.63485 13410 ft 288 kts 250°
2026-04-11 13:00 61.30299 -44.67404 13029 ft 286 kts 250°
2026-04-11 13:00 61.29635 -44.71293 12650 ft 285 kts 250°
2026-04-11 13:00 61.28983 -44.75173 12272 ft 284 kts 250°
2026-04-11 13:01 61.28317 -44.79030 11886 ft 283 kts 249°
2026-04-11 13:01 61.27006 -44.86699 11149 ft 281 kts 249°
2026-04-11 13:01 61.26347 -44.90472 10779 ft 280 kts 249°
2026-04-11 13:02 61.25658 -44.94235 10406 ft 277 kts 248°
2026-04-11 13:02 61.24971 -44.97956 10044 ft 276 kts 249°
2026-04-11 13:02 61.24312 -45.01687 9679 ft 275 kts 249°
2026-04-11 13:02 61.23635 -45.05399 9314 ft 275 kts 249°
2026-04-11 13:03 61.22965 -45.09112 8949 ft 275 kts 249°
2026-04-11 13:03 61.22293 -45.12801 8587 ft 272 kts 249°
2026-04-11 13:03 61.21632 -45.16439 8228 ft 266 kts 249°
2026-04-11 13:03 61.20999 -45.19941 7885 ft 261 kts 249°
2026-04-11 13:04 61.20346 -45.23435 7535 ft 256 kts 249°
2026-04-11 13:04 61.19737 -45.26801 7206 ft 242 kts 249°
2026-04-11 13:04 61.19157 -45.29989 6892 ft 231 kts 249°
2026-04-11 13:04 61.18599 -45.33026 6590 ft 221 kts 248°
2026-04-11 13:05 61.18076 -45.35868 6315 ft 204 kts 248°
2026-04-11 13:05 61.17580 -45.38541 6050 ft 194 kts 248°
2026-04-11 13:05 61.17052 -45.41057 5786 ft 188 kts 236°
2026-04-11 13:05 61.16132 -45.42877 5541 ft 185 kts 215°
2026-04-11 13:06 61.15138 -45.44579 5284 ft 186 kts 219°
2026-04-11 13:06 61.14145 -45.46300 5025 ft 186 kts 217°
2026-04-11 13:06 61.13139 -45.47997 4767 ft 187 kts 218°
2026-04-11 13:06 61.12135 -45.49711 4505 ft 187 kts 218°
2026-04-11 13:07 61.11134 -45.51421 4243 ft 187 kts 218°
2026-04-11 13:07 61.10123 -45.53121 3981 ft 188 kts 218°
2026-04-11 13:07 61.09102 -45.54852 3724 ft 192 kts 218°
2026-04-11 13:07 61.08074 -45.56615 3465 ft 193 kts 218°
2026-04-11 13:08 61.06928 -45.57958 3179 ft 189 kts 190°
2026-04-11 13:08 61.05704 -45.57384 2937 ft 186 kts 148°
2026-04-11 13:08 61.04917 -45.55368 2681 ft 185 kts 107°
2026-04-11 13:08 61.04942 -45.52784 2430 ft 182 kts 70°
2026-04-11 13:09 61.05757 -45.50852 2186 ft 182 kts 31°
2026-04-11 13:09 61.06979 -45.50375 1939 ft 183 kts 355°
2026-04-11 13:09 61.08228 -45.50694 1700 ft 179 kts 355°
2026-04-11 13:09 61.09434 -45.50937 1465 ft 158 kts 355°
2026-04-11 13:10 61.10387 -45.51122 1266 ft 127 kts 355°
2026-04-11 13:10 61.11204 -45.50963 1139 ft 113 kts 20°
2026-04-11 13:10 61.11840 -45.50056 1001 ft 112 kts 41°
2026-04-11 13:10 61.12444 -45.48987 835 ft 114 kts 39°
2026-04-11 13:11 61.13052 -45.47938 667 ft 112 kts 40°
2026-04-11 13:11 61.13632 -45.46904 563 ft 109 kts 41°
2026-04-11 13:11 61.14208 -45.45857 421 ft 112 kts 41°
2026-04-11 13:11 61.14797 -45.44819 303 ft 109 kts 40°
2026-04-11 13:12 61.15366 -45.43811 118 ft 107 kts 40°
2026-04-11 13:12 61.15891 -45.42893 61 ft 87 kts 40°
2026-04-11 13:12 61.16196 -45.42350 73 ft 27 kts 40°
2026-04-11 13:12 61.16305 -45.42164 75 ft 14 kts 41°
2026-04-11 13:13 61.16290 -45.42022 80 ft 13 kts 130°
2026-04-11 13:13 61.16235 -45.41886 80 ft 9 kts 129°
2026-04-11 13:13 61.16179 -45.41834 80 ft 11 kts 216°
2026-04-11 13:13 61.16170 -45.41890 82 ft 4 kts 42°
2026-04-11 13:14 61.16181 -45.41867 79 ft 0 kts 43°